sat.trackr.live / text

‹ back to catalog

TIANTONG-1 3

NORAD 47321 · 2021-003A

PAYLOAD ACTIVE UNKNOWN

§ Identity

Operator
Country
PRC
Launch date
2021-01-19
Launch site
XICLF
Launch vehicle
Mass (kg)
RCS (m²)

Purposes: comms

External: N2YO · Heavens-Above · Gunter

§ Orbital elements

Epoch: 2026-09-13T02:15:56.447712Z

Period
1,436.12 min
Inclination
1.7033°
Eccentricity
0.0003305
Mean motion
1.00270004 rev/d
Perigee alt
35,773.2 km
Apogee alt
35,801.0 km
Semi-major
42,165.2 km
B*
0.0000e+0
RAAN
344.9294°
Arg perigee
203.7607°
Mean anomaly
278.8908°
Rev number
2,084

§ Raw data

TIANTONG-1 31 47321U 21003A   26256.09440333 -.00000166  00000+0  00000+0 0  99922 47321   1.7033 344.9294 0003305 203.7607 278.8908  1.00270004 20844

JSON: /api/v1/satellites/47321 · /tle

For live sub-satellite position, see the globe view (requires WebGL).

§ Visibility from observer

Set your observer location to see the next 7 days of passes ≥ 10°. The values pass through the URL so the page stays shareable.

No JS? Fill the form by hand. The geolocation button needs JavaScript.